Home > Weather > Fullerton > Past weeks

Flag for USA Past Weather in Fullerton, California, USA — Yesterday and Last 2 Weeks

Now
78 °F

Sunny.


Feels Like: 80 °F
Forecast: 69 / 87 °F
Wind: 6 mph from Southeast

Location: Fullerton Municipal Airport

Current Time: Jul 29, 2016 at 8:34:49 PM

Latest Report: Jul 29, 2016 at 7:53 PM


Visibility: 10 mi

Pressure: 29.76 "Hg

Humidity: 60%

Dew Point: 63 °F

Location of FullertonLocation

Past Weather in Fullerton — Graph

°F

Fullerton Temperature Yesterday

Maximum temperature yesterday: 90 °F (at 1:53 PM)
Minimum temperature yesterday: 72 °F (at 3:53 AM)
Average temperature yesterday: 79 °F

High & Low Weather Summary for the Past Weeks

 TemperatureHumidityPressure
High103 °F (Jul 22, 2:53 PM)87% (Jul 24, 4:53 AM)30.02 "Hg (Jul 24, 4:53 AM)
Low65 °F (Jul 15, 3:53 AM)13% (Jul 22, 3:53 PM)29.75 "Hg (Jul 29, 6:53 PM)
Average79 °F57%29.89 "Hg
* Reported Jul 14 6:53 PM — Jul 29 6:53 PM, Fullerton, Weather by CustomWeather, © 2016

Note: Actual official high and low records may vary slightly from our data, if they occured in-between our weather recording intervals... More about our weather records

Advertising

Fullerton Weather History for the Previous 24 Hours

Scroll right to see more
 ConditionsComfort  
Time TempWeatherWind HumidityBarometerVisibility
6:53 PM
Fri, Jul 29
80 °FSunny.7 mph56%29.75 "Hg10 mi
5:53 PM83 °FSunny.8 mph51%29.75 "Hg10 mi
4:53 PM84 °FSunny.9 mph46%29.76 "Hg10 mi
3:53 PM87 °FSunny.7 mph39%29.76 "Hg10 mi
2:53 PM86 °FSunny.9 mph39%29.78 "Hg10 mi
1:53 PM87 °FSunny.8 mph40%29.80 "Hg10 mi
12:53 PM88 °FSunny.7 mph40%29.80 "Hg10 mi
11:53 AM87 °FSunny.8 mph45%29.82 "Hg10 mi
10:53 AM86 °FSunny.7 mph42%29.82 "Hg10 mi
9:53 AM83 °FSunny.No wind48%29.82 "Hg10 mi
8:53 AM79 °FSunny.No wind58%29.83 "Hg10 mi
7:53 AM76 °FSunny.No wind64%29.83 "Hg10 mi
6:53 AM73 °FClear.No wind69%29.83 "Hg10 mi
5:53 AM72 °FClear.No wind76%29.81 "Hg10 mi
4:53 AM73 °FClear.No wind71%29.80 "Hg10 mi
3:53 AM73 °FClear.3 mph74%29.81 "Hg10 mi
2:53 AM74 °FClear.No wind71%29.80 "Hg10 mi
1:53 AM74 °FClear.No wind76%29.81 "Hg10 mi
12:53 AM74 °FClear.No wind76%29.82 "Hg10 mi
11:53 PM
Thu, Jul 28
75 °FClear.5 mph74%29.83 "Hg10 mi
10:53 PM77 °FClear.6 mph66%29.83 "Hg10 mi
9:53 PM78 °FClear.No wind62%29.83 "Hg10 mi
8:53 PM78 °FSunny.3 mph60%29.82 "Hg10 mi
Weather by CustomWeather, © 2016

See weather overviewHow to use our weather pages